| time (UTC) | temp C | wind direction | speed KPH | gust KPH | rain 1hr cm | rain 24hr cm | rain mn cm | humidity % | barometer mb |
| 20260504192518 | 28 | 0 | 0.0 | 3.2 | 0.00 | 0.00 | 0.00 | 58 | 1013.7 |
| 20260504192019 | 28 | 0 | 0.0 | 3.2 | 0.00 | 0.00 | 0.00 | 57 | 1013.9 |
| 20260504191539 | 28 | 0 | 0.0 | 4.8 | 0.00 | 0.00 | 0.00 | 58 | 1013.8 |
| 20260504191023 | 28 | 0 | 0.0 | 4.8 | 0.00 | 0.00 | 0.00 | 58 | 1013.9 |
| 20260504190522 | 28 | 96 | 0.0 | 4.8 | 0.00 | 0.00 | 0.00 | 56 | 1014.0 |
| 20260504190040 | 28 | 110 | 0.0 | 4.8 | 0.00 | 0.00 | 0.00 | 57 | 1014.0 |
| 20260504185518 | 28 | 60 | 0.0 | 4.8 | 0.00 | 0.00 | 0.00 | 57 | 1014.1 |
| 20260504185022 | 28 | 0 | 0.0 | 3.2 | 0.00 | 0.00 | 0.00 | 58 | 1014.2 |
| 20260504184539 | 28 | 243 | 0.0 | 4.8 | 0.00 | 0.00 | 0.00 | 56 | 1014.2 |
| 20260504184020 | 28 | 261 | 0.0 | 4.8 | 0.00 | 0.00 | 0.00 | 55 | 1014.3 |
| 20260504183520 | 28 | 0 | 0.0 | 6.4 | 0.00 | 0.00 | 0.00 | 55 | 1014.3 |
| 20260504183037 | 29 | 0 | 0.0 | 6.4 | 0.00 | 0.00 | 0.00 | 55 | 1014.2 |
| 20260504182518 | 29 | 355 | 0.0 | 3.2 | 0.00 | 0.00 | 0.00 | 55 | 1014.3 |
| 20260504182021 | 29 | 53 | 0.0 | 4.8 | 0.00 | 0.00 | 0.00 | 55 | 1014.2 |
| 20260504181535 | 28 | 0 | 0.0 | 4.8 | 0.00 | 0.00 | 0.00 | 55 | 1014.3 |
| 20260504181018 | 28 | 0 | 0.0 | 4.8 | 0.00 | 0.00 | 0.00 | 55 | 1014.5 |
| 20260504180517 | 28 | 257 | 0.0 | 3.2 | 0.00 | 0.00 | 0.00 | 57 | 1014.5 |
| 20260504180039 | 28 | 255 | 0.0 | 3.2 | 0.00 | 0.00 | 0.00 | 55 | 1014.7 |
| 20260504175519 | 28 | 0 | 0.0 | 1.6 | 0.00 | 0.00 | 0.00 | 57 | 1014.7 |
| 20260504175019 | 27 | 0 | 0.0 | 1.6 | 0.00 | 0.00 | 0.00 | 59 | 1014.8 |
| 20260504174533 | 27 | 0 | 0.0 | 1.6 | 0.00 | 0.00 | 0.00 | 59 | 1014.9 |
| 20260504174021 | 27 | 0 | 0.0 | 4.8 | 0.00 | 0.00 | 0.00 | 59 | 1014.9 |
| 20260504173522 | 27 | 0 | 0.0 | 4.8 | 0.00 | 0.00 | 0.00 | 60 | 1014.9 |
| 20260504173035 | 27 | 0 | 0.0 | 4.8 | 0.00 | 0.00 | 0.00 | 59 | 1014.9 |
| 20260504172521 | 27 | 27 | 0.0 | 4.8 | 0.00 | 0.00 | 0.00 | 58 | 1015.1 |
| 20260504172019 | 27 | 0 | 0.0 | 4.8 | 0.00 | 0.00 | 0.00 | 59 | 1015.2 |
| 20260504171540 | 27 | 0 | 0.0 | 4.8 | 0.00 | 0.00 | 0.00 | 60 | 1015.4 |
| 20260504171019 | 26 | 56 | 0.0 | 4.8 | 0.00 | 0.00 | 0.00 | 60 | 1015.3 |
| 20260504170519 | 26 | 236 | 0.0 | 4.8 | 0.00 | 0.00 | 0.00 | 61 | 1015.4 |
| 20260504151021 | 26 | 0 | 0.0 | 3.2 | 0.00 | 0.00 | 0.00 | 62 | 1016.4 |
| 20260504150519 | 26 | 139 | 0.0 | 1.6 | 0.00 | 0.00 | 0.00 | 63 | 1016.3 |
| 20260504141022 | 22 | 0 | 0.0 | 1.6 | 0.00 | 0.00 | 0.00 | 71 | 1016.5 |
| 20260504140518 | 21 | 100 | 0.0 | 1.6 | 0.00 | 0.00 | 0.00 | 71 | 1016.4 |
| 20260504130520 | 17 | 0 | 0.0 | 1.6 | 0.00 | 0.00 | 0.00 | 80 | 1016.3 |
| 20260504110519 | 15 | 0 | 0.0 | 0.0 | 0.00 | 0.00 | 0.00 | 86 | 1016.0 |
| 20260504100525 | 15 | 0 | 0.0 | 0.0 | 0.00 | 0.00 | 0.00 | 82 | 1016.4 |
| 20260504081539 | 16 | 0 | 0.0 | 0.0 | 0.00 | 0.00 | 0.00 | 78 | 1016.8 |
| 20260504081021 | 16 | 0 | 0.0 | 0.0 | 0.00 | 0.00 | 0.00 | 77 | 1016.9 |
| 20260504080522 | 16 | 0 | 0.0 | 0.0 | 0.00 | 0.00 | 0.00 | 77 | 1017.2 |
| 20260504050518 | 17 | 0 | 0.0 | 0.0 | 0.00 | 0.00 | 0.00 | 74 | 1018.8 |
| 20260504045519 | 17 | 0 | 0.0 | 0.0 | 0.00 | 0.00 | 0.00 | 73 | 1018.7 |
| 20260504045025 | 17 | 0 | 0.0 | 0.0 | 0.00 | 0.00 | 0.00 | 73 | 1018.7 |
| 20260504044537 | 17 | 0 | 0.0 | 0.0 | 0.00 | 0.00 | 0.00 | 73 | 1018.7 |
| 20260504044021 | 17 | 0 | 0.0 | 0.0 | 0.00 | 0.00 | 0.00 | 72 | 1018.7 |
| 20260504043519 | 17 | 0 | 0.0 | 0.0 | 0.00 | 0.00 | 0.00 | 72 | 1018.9 |
| 20260504043046 | 17 | 0 | 0.0 | 0.0 | 0.00 | 0.00 | 0.00 | 71 | 1018.8 |
| 20260504042519 | 17 | 0 | 0.0 | 0.0 | 0.00 | 0.00 | 0.00 | 71 | 1019.0 |
| 20260504042019 | 17 | 0 | 0.0 | 0.0 | 0.00 | 0.00 | 0.00 | 70 | 1019.0 |
| 20260504041536 | 17 | 0 | 0.0 | 0.0 | 0.00 | 0.00 | 0.00 | 70 | 1019.0 |
| 20260504041018 | 17 | 0 | 0.0 | 0.0 | 0.00 | 0.00 | 0.00 | 70 | 1019.0 |
| 20260504040518 | 17 | 0 | 0.0 | 0.0 | 0.00 | 0.00 | 0.00 | 69 | 1018.9 |
| 20260504040043 | 17 | 0 | 0.0 | 0.0 | 0.00 | 0.00 | 0.00 | 69 | 1018.9 |
| 20260504035518 | 18 | 0 | 0.0 | 1.6 | 0.00 | 0.00 | 0.00 | 69 | 1018.9 |
| 20260504035019 | 18 | 0 | 0.0 | 1.6 | 0.00 | 0.00 | 0.00 | 69 | 1018.9 |
| 20260504034545 | 18 | 0 | 0.0 | 0.0 | 0.00 | 0.00 | 0.00 | 68 | 1018.8 |
| 20260504034022 | 18 | 0 | 0.0 | 0.0 | 0.00 | 0.00 | 0.00 | 67 | 1019.1 |
| 20260504033519 | 18 | 0 | 0.0 | 1.6 | 0.00 | 0.00 | 0.00 | 67 | 1019.1 |
| 20260504033036 | 18 | 0 | 0.0 | 1.6 | 0.00 | 0.00 | 0.00 | 66 | 1019.1 |
| 20260504032519 | 18 | 231 | 0.0 | 1.6 | 0.00 | 0.00 | 0.00 | 66 | 1019.0 |
| 20260504032019 | 18 | 0 | 0.0 | 1.6 | 0.00 | 0.00 | 0.00 | 66 | 1018.9 |
| 20260504031537 | 18 | 0 | 0.0 | 0.0 | 0.00 | 0.00 | 0.00 | 65 | 1019.0 |
| 20260504031018 | 19 | 0 | 0.0 | 0.0 | 0.00 | 0.00 | 0.00 | 65 | 1018.9 |
| 20260504030518 | 19 | 0 | 0.0 | 0.0 | 0.00 | 0.00 | 0.00 | 64 | 1018.9 |
| 20260504030046 | 19 | 0 | 0.0 | 0.0 | 0.00 | 0.00 | 0.00 | 64 | 1018.9 |
| 20260504025518 | 19 | 0 | 0.0 | 0.0 | 0.00 | 0.00 | 0.00 | 63 | 1018.8 |
| 20260504025021 | 20 | 0 | 0.0 | 1.6 | 0.00 | 0.00 | 0.00 | 63 | 1018.7 |
| 20260504024536 | 20 | 0 | 0.0 | 1.6 | 0.00 | 0.00 | 0.00 | 63 | 1018.7 |
| 20260504024019 | 20 | 0 | 0.0 | 1.6 | 0.00 | 0.00 | 0.00 | 62 | 1018.7 |
| 20260504023519 | 20 | 0 | 0.0 | 1.6 | 0.00 | 0.00 | 0.00 | 62 | 1018.8 |
| 20260504023038 | 20 | 0 | 0.0 | 1.6 | 0.00 | 0.00 | 0.00 | 62 | 1018.8 |
| 20260504022519 | 20 | 0 | 0.0 | 1.6 | 0.00 | 0.00 | 0.00 | 62 | 1018.8 |
| 20260504022018 | 20 | 0 | 0.0 | 1.6 | 0.00 | 0.00 | 0.00 | 61 | 1018.7 |
| 20260504021541 | 20 | 0 | 0.0 | 1.6 | 0.00 | 0.00 | 0.00 | 61 | 1018.6 |
| 20260504021018 | 20 | 0 | 0.0 | 1.6 | 0.00 | 0.00 | 0.00 | 60 | 1018.6 |
| 20260504020519 | 20 | 0 | 0.0 | 0.0 | 0.00 | 0.00 | 0.00 | 60 | 1018.6 |
| 20260504020037 | 20 | 0 | 0.0 | 0.0 | 0.00 | 0.00 | 0.00 | 60 | 1018.5 |
| 20260504015519 | 21 | 0 | 0.0 | 0.0 | 0.00 | 0.00 | 0.00 | 59 | 1018.6 |
| 20260504015020 | 21 | 0 | 0.0 | 1.6 | 0.00 | 0.00 | 0.00 | 57 | 1018.6 |
| 20260504014536 | 21 | 0 | 0.0 | 1.6 | 0.00 | 0.00 | 0.00 | 57 | 1018.7 |
| 20260504014018 | 21 | 0 | 0.0 | 1.6 | 0.00 | 0.00 | 0.00 | 57 | 1018.5 |
| 20260504013518 | 21 | 0 | 0.0 | 0.0 | 0.00 | 0.00 | 0.00 | 57 | 1018.6 |
| 20260504013037 | 21 | 302 | 0.0 | 0.0 | 0.00 | 0.00 | 0.00 | 57 | 1018.5 |
| 20260504012518 | 21 | 0 | 0.0 | 1.6 | 0.00 | 0.00 | 0.00 | 56 | 1018.5 |
| 20260504012021 | 21 | 0 | 0.0 | 3.2 | 0.00 | 0.00 | 0.00 | 55 | 1018.4 |
| 20260504011536 | 21 | 0 | 0.0 | 3.2 | 0.00 | 0.00 | 0.00 | 55 | 1018.4 |
| 20260504011021 | 21 | 0 | 0.0 | 4.8 | 0.00 | 0.00 | 0.00 | 54 | 1018.3 |
| 20260504010520 | 22 | 0 | 0.0 | 4.8 | 0.00 | 0.00 | 0.00 | 53 | 1018.3 |
| 20260504010036 | 22 | 75 | 0.0 | 1.6 | 0.00 | 0.00 | 0.00 | 54 | 1018.4 |
| 20260504005519 | 22 | 257 | 0.0 | 1.6 | 0.00 | 0.00 | 0.00 | 54 | 1018.2 |
| 20260504005019 | 22 | 257 | 0.0 | 1.6 | 0.00 | 0.00 | 0.00 | 54 | 1018.3 |
| 20260504004541 | 22 | 0 | 0.0 | 1.6 | 0.00 | 0.00 | 0.00 | 53 | 1018.5 |
| 20260504004024 | 22 | 0 | 0.0 | 1.6 | 0.00 | 0.00 | 0.00 | 52 | 1018.4 |
| 20260504003518 | 22 | 0 | 0.0 | 1.6 | 0.00 | 0.00 | 0.00 | 52 | 1018.4 |
| 20260504003036 | 22 | 0 | 0.0 | 1.6 | 0.00 | 0.00 | 0.00 | 50 | 1018.2 |
| 20260504002521 | 23 | 104 | 0.0 | 1.6 | 0.00 | 0.00 | 0.00 | 50 | 1018.3 |
| 20260504002018 | 23 | 0 | 0.0 | 1.6 | 0.00 | 0.00 | 0.00 | 50 | 1018.3 |
| 20260504001539 | 23 | 0 | 0.0 | 3.2 | 0.00 | 0.00 | 0.00 | 48 | 1018.3 |
| 20260504001018 | 23 | 0 | 0.0 | 3.2 | 0.00 | 0.00 | 0.00 | 48 | 1018.2 |
| 20260504000519 | 23 | 0 | 0.0 | 1.6 | 0.00 | 0.00 | 0.00 | 47 | 1018.2 |
| 20260504000039 | 23 | 0 | 0.0 | 1.6 | 0.00 | 0.00 | 0.00 | 48 | 1018.4 |
| 20260503235521 | 23 | 0 | 0.0 | 1.6 | 0.00 | 0.00 | 0.00 | 47 | 1018.3 |
| 20260503235019 | 23 | 0 | 0.0 | 1.6 | 0.00 | 0.00 | 0.00 | 48 | 1018.4 |
| 20260503234539 | 24 | 98 | 0.0 | 1.6 | 0.00 | 0.00 | 0.00 | 46 | 1018.3 |
| 20260503234019 | 24 | 0 | 0.0 | 1.6 | 0.00 | 0.00 | 0.00 | 46 | 1018.3 |
| 20260503233519 | 24 | 0 | 0.0 | 1.6 | 0.00 | 0.00 | 0.00 | 47 | 1018.4 |
| 20260503233036 | 24 | 0 | 0.0 | 1.6 | 0.00 | 0.00 | 0.00 | 46 | 1018.5 |
| 20260503232519 | 25 | 0 | 0.0 | 11.3 | 0.00 | 0.00 | 0.00 | 45 | 1018.6 |
| 20260503232021 | 25 | 0 | 0.0 | 11.3 | 0.00 | 0.00 | 0.00 | 45 | 1018.7 |
| 20260503231537 | 25 | 0 | 0.0 | 3.2 | 0.00 | 0.00 | 0.00 | 44 | 1018.7 |
| 20260503231019 | 25 | 238 | 0.0 | 3.2 | 0.00 | 0.00 | 0.00 | 47 | 1018.7 |
| 20260503230519 | 25 | 0 | 0.0 | 3.2 | 0.00 | 0.00 | 0.00 | 46 | 1018.6 |
| 20260503230050 | 25 | 0 | 0.0 | 3.2 | 0.00 | 0.00 | 0.00 | 45 | 1018.6 |
| 20260503225518 | 25 | 172 | 0.0 | 1.6 | 0.00 | 0.00 | 0.00 | 44 | 1018.6 |
| 20260503225018 | 25 | 157 | 0.0 | 3.2 | 0.00 | 0.00 | 0.00 | 44 | 1018.7 |
| 20260503224534 | 26 | 0 | 0.0 | 3.2 | 0.00 | 0.00 | 0.00 | 43 | 1018.7 |
| 20260503224020 | 26 | 0 | 0.0 | 3.2 | 0.00 | 0.00 | 0.00 | 42 | 1018.8 |
| 20260503223522 | 26 | 101 | 0.0 | 3.2 | 0.00 | 0.00 | 0.00 | 42 | 1018.7 |
| 20260503223044 | 26 | 93 | 0.0 | 1.6 | 0.00 | 0.00 | 0.00 | 41 | 1018.7 |
| 20260503222518 | 26 | 0 | 0.0 | 1.6 | 0.00 | 0.00 | 0.00 | 41 | 1018.8 |
| 20260503222018 | 26 | 75 | 0.0 | 1.6 | 0.00 | 0.00 | 0.00 | 36 | 1019.1 |
| 20260503221535 | 26 | 329 | 0.0 | 1.6 | 0.00 | 0.00 | 0.00 | 37 | 1019.1 |
| 20260503221019 | 26 | 0 | 0.0 | 1.6 | 0.00 | 0.00 | 0.00 | 37 | 1019.2 |
| 20260503220519 | 26 | 0 | 0.0 | 1.6 | 0.00 | 0.00 | 0.00 | 36 | 1019.0 |
| 20260503220037 | 26 | 0 | 0.0 | 1.6 | 0.00 | 0.00 | 0.00 | 36 | 1019.1 |
| 20260503215519 | 27 | 0 | 0.0 | 1.6 | 0.00 | 0.00 | 0.00 | 38 | 1019.1 |
| 20260503215022 | 26 | 0 | 0.0 | 3.2 | 0.00 | 0.00 | 0.00 | 38 | 1019.1 |
| 20260503214550 | 26 | 0 | 0.0 | 6.4 | 0.00 | 0.00 | 0.00 | 37 | 1019.0 |
| 20260503214021 | 26 | 67 | 0.0 | 6.4 | 0.00 | 0.00 | 0.00 | 35 | 1019.2 |
| 20260503213521 | 27 | 0 | 0.0 | 9.7 | 0.00 | 0.00 | 0.00 | 34 | 1019.4 |
| 20260503213036 | 27 | 0 | 1.6 | 9.7 | 0.00 | 0.00 | 0.00 | 36 | 1019.4 |
| 20260503212519 | 27 | 143 | 0.0 | 3.2 | 0.00 | 0.00 | 0.00 | 36 | 1019.4 |
| 20260503212019 | 27 | 0 | 0.0 | 3.2 | 0.00 | 0.00 | 0.00 | 35 | 1019.6 |
| 20260503211538 | 27 | 0 | 0.0 | 3.2 | 0.00 | 0.00 | 0.00 | 35 | 1019.6 |
| 20260503211021 | 28 | 0 | 0.0 | 3.2 | 0.00 | 0.00 | 0.00 | 36 | 1019.7 |
| 20260503210521 | 28 | 158 | 0.0 | 3.2 | 0.00 | 0.00 | 0.00 | 36 | 1019.7 |
| 20260503210036 | 28 | 0 | 0.0 | 1.6 | 0.00 | 0.00 | 0.00 | 37 | 1019.7 |
| 20260503205519 | 27 | 0 | 0.0 | 6.4 | 0.00 | 0.00 | 0.00 | 36 | 1019.8 |
| 20260503205024 | 27 | 0 | 0.0 | 6.4 | 0.00 | 0.00 | 0.00 | 35 | 1019.7 |
| 20260503204542 | 27 | 51 | 0.0 | 6.4 | 0.00 | 0.00 | 0.00 | 35 | 1019.8 |
| 20260503204018 | 27 | 0 | 0.0 | 4.8 | 0.00 | 0.00 | 0.00 | 36 | 1019.9 |
| 20260503203525 | 27 | 0 | 0.0 | 4.8 | 0.00 | 0.00 | 0.00 | 37 | 1020.0 |
| 20260503203035 | 28 | 0 | 0.0 | 4.8 | 0.00 | 0.00 | 0.00 | 36 | 1020.2 |
| 20260503202523 | 27 | 0 | 0.0 | 4.8 | 0.00 | 0.00 | 0.00 | 36 | 1020.2 |
| 20260503202018 | 28 | 45 | 0.0 | 4.8 | 0.00 | 0.00 | 0.00 | 34 | 1020.5 |
| 20260503201541 | 28 | 0 | 0.0 | 4.8 | 0.00 | 0.00 | 0.00 | 39 | 1020.4 |
| 20260503201020 | 28 | 0 | 0.0 | 4.8 | 0.00 | 0.00 | 0.00 | 35 | 1020.4 |
| 20260503200519 | 27 | 0 | 0.0 | 4.8 | 0.00 | 0.00 | 0.00 | 39 | 1020.6 |
| 20260503200038 | 28 | 0 | 0.0 | 1.6 | 0.00 | 0.00 | 0.00 | 36 | 1020.8 |
| 20260503195519 | 28 | 0 | 0.0 | 8.0 | 0.00 | 0.00 | 0.00 | 36 | 1020.8 |
| 20260503195020 | 27 | 0 | 0.0 | 8.0 | 0.00 | 0.00 | 0.00 | 37 | 1020.9 |
| 20260503194542 | 27 | 36 | 0.0 | 8.0 | 0.00 | 0.00 | 0.00 | 35 | 1020.9 |
| 20260503194019 | 27 | 0 | 1.6 | 8.0 | 0.00 | 0.00 | 0.00 | 36 | 1021.0 |
| 20260503193519 | 27 | 38 | 0.0 | 3.2 | 0.00 | 0.00 | 0.00 | 35 | 1021.1 |
| 20260503193035 | 28 | 0 | 0.0 | 1.6 | 0.00 | 0.00 | 0.00 | 34 | 1021.1 |